Regional Weather Roundup
Issued by NWS

Home | Current Version | Previous Version | Text Only | Print | Product List | Glossary Off
Versions: 1 2 3 4 5 6 7 8 9 10 11 12 13 14 15 16 17 18 19 20 21 22 23 24 25 26 27 28 29 30 31 32 33 34 35 36 37 38 39 40 41 42 43 44 45 46 47 48 49 50

000
ASUS43 KLSX 211807
RWRMO

WEATHER SUMMARY FOR MISSOURI
NATIONAL WEATHER SERVICE SPRINGFIELD MO
1200 PM CST SUN JAN 21 2018

NOTE: "FAIR" INDICATES FEW OR NO CLOUDS BELOW 12,000 FEET WITH NO
       SIGNIFICANT WEATHER AND/OR OBSTRUCTIONS TO VISIBILITY.
       CURRENT SKY AND/OR WEATHER CONDITIONS ARE NOT AVAILABLE FOR
       CHILLICOTHE AND FARMINGTON.

MOZ001>031-035>038-043-044-053-054-211900-
...NORTHERN AND WESTERN MISSOURI...

CITY           SKY/WX    TMP DP  RH WIND       PRES   REMARKS
KANSAS CTY INT CLOUDY    58  51  78 S9        29.74F
6HR MIN TEMP:  49; 6HR MAX TEMP:  59;

KANSAS C DTWN  CLOUDY    57  50  77 SE3       29.75F
6HR MIN TEMP:  47; 6HR MAX TEMP:  57;

LEE`S SUMMIT   CLOUDY    56  52  86 S8        29.76F
6HR MIN TEMP:  49; 6HR MAX TEMP:  56;

ST JOSEPH      CLOUDY    57  51  80 S10       29.74F
6HR MIN TEMP:  42; 6HR MAX TEMP:  57;

CHILLICOTHE      N/A     53  49  86 S7        29.79F
6HR MIN TEMP:  47; 6HR MAX TEMP:  53;

KIRKSVILLE     CLOUDY    52  51  97 S7        29.81F
6HR MIN TEMP:  43; 6HR MAX TEMP:  52;


$$
MOZ066>068-077>081-088>096-101>105-211900-
...SOUTHWEST MISSOURI...

CITY           SKY/WX    TMP DP  RH WIND       PRES   REMARKS
SPRINGFIELD    MOSUNNY   66  55  67 S21G33    29.84F
6HR MIN TEMP:  50; 6HR MAX TEMP:  68;

JOPLIN         CLOUDY    69  53  56 S24G45    29.79F
6HR MIN TEMP:  56; 6HR MAX TEMP:  69;

BRANSON        CLOUDY    68  54  60 S17G28    29.89F

$$
MOZ032>034-039>042-045>050-055>058-069>072-211900-
...CENTRAL MISSOURI...

CITY           SKY/WX    TMP DP  RH WIND       PRES   REMARKS
COLUMBIA       SUNNY     66  54  65 S14       29.82F
6HR MIN TEMP:  48; 6HR MAX TEMP:  66;

JEFFERSON CITY MOSUNNY   68  53  58 S15G26    29.82F
6HR MIN TEMP:  37; 6HR MAX TEMP:  68;

ROLLA          MOSUNNY   67  54  63 S22G32    29.86F
6HR MIN TEMP:  49; 6HR MAX TEMP:  67;

SEDALIA        MOSUNNY   67  55  65 SW22G36   29.80F
6HR MIN TEMP:  45; 6HR MAX TEMP:  68;

WHITEMAN AFB   PTSUNNY   64  54  68 SW15      29.73F
WARRENSBURG    CLOUDY    61  52  72 S7        29.78F
OSAGE BEACH    PTSUNNY   67  55  65 S17G30    29.84

$$
MOZ051-052-059>065-211900-
...EAST CENTRAL MISSOURI...

CITY           SKY/WX    TMP DP  RH WIND       PRES   REMARKS
ST LOUIS INTL  PTSUNNY   65  54  67 S14       29.89F
6HR MIN TEMP:  43; 6HR MAX TEMP:  65;

SPIRIT OF STL  MOSUNNY   69  54  58 S17G24    29.86F
6HR MIN TEMP:  34; 6HR MAX TEMP:  69;

ST CHARLES     SUNNY     64  54  69 SE13      29.88F
6HR MIN TEMP:  41; 6HR MAX TEMP:  64;


$$
MOZ072>076-082>087-097>100-106>115-211900-
...SOUTH CENTRAL AND SOUTHEAST MISSOURI...

CITY           SKY/WX    TMP DP  RH WIND       PRES   REMARKS
CAPE GIRARDEAU CLOUDY    53  50  89 S17G29    30.02F FOG
6HR MIN TEMP:  49; 6HR MAX TEMP:  53;

FARMINGTON     CLOUDY    57  54  89 S14       29.95F
6HR MIN TEMP:  53; 6HR MAX TEMP:  57;

POPLAR BLUFF   CLOUDY    55  53  93 S10       30.00F
6HR MIN TEMP:  51; 6HR MAX TEMP:  55; 6HR PCP: TRACE;

WEST PLAINS    CLOUDY    61  56  83 S12       29.94F
6HR MIN TEMP:  53; 6HR MAX TEMP:  62;


$$



USA.gov is the U.S. government's official web portal to all federal, state and local government web resources and services.